EW3197 Weather Reports


Display with metric or nautical units.
time (UTC)temp
F
wind
direction
speed
MPH
gust
MPH
rain 1hr
in
rain 24hr
in
rain mn
in
humidity
%
barometer
mb
20260905172704 74 57 1.0 8.0 0.00 0.00 0.00 66 1010.4
20260905172204 75 36 2.0 8.0 0.00 0.00 0.00 66 1010.4
20260905171704 75 289 3.0 8.0 0.00 0.00 0.00 62 1010.3
20260905171205 75 341 2.0 7.0 0.00 0.00 0.00 64 1010.2
20260905170704 75 287 3.0 7.0 0.00 0.00 0.00 66 1010.3
20260905170204 75 274 2.0 3.0 0.00 0.00 0.00 66 1010.3
20260905165703 74 311 2.0 3.0 0.00 0.00 0.00 67 1010.4
20260905165204 74 333 1.0 3.0 0.00 0.00 0.00 67 1010.3
20260905164704 74 306 2.0 5.0 0.00 0.00 0.00 66 1010.3
20260905164203 73 10 3.0 5.0 0.00 0.00 0.00 68 1010.4
20260905163704 72 274 1.0 3.0 0.00 0.00 0.00 68 1010.4
20260905162704 73 319 2.0 3.0 0.00 0.00 0.00 67 1010.3
20260905161704 73 291 2.0 3.0 0.00 0.00 0.00 68 1010.4
20260905161203 73 311 2.0 6.0 0.00 0.00 0.00 66 1010.3
20260905160204 72 286 2.0 7.0 0.00 0.00 0.00 68 1010.4
20260905155704 72 262 2.0 3.0 0.00 0.00 0.00 68 1010.4
20260905155204 73 316 4.0 9.0 0.00 0.00 0.00 67 1010.5
20260905154704 73 325 2.0 9.0 0.00 0.00 0.00 67 1010.5
20260905154204 72 329 3.0 8.0 0.00 0.00 0.00 69 1010.6
20260905153704 72 313 2.0 8.0 0.00 0.00 0.00 69 1010.6
20260905153204 72 276 1.0 12.0 0.00 0.00 0.00 68 1010.6
20260905152704 73 339 4.0 8.0 0.00 0.00 0.00 67 1010.6
20260905152204 72 3 2.0 8.0 0.00 0.00 0.00 70 1010.6
20260905151704 71 34 1.0 9.0 0.00 0.00 0.00 70 1010.7
20260905151204 71 63 1.0 3.0 0.00 0.00 0.00 70 1010.7
20260905150704 72 228 4.0 10.0 0.00 0.00 0.00 68 1010.6
20260905150204 72 307 3.0 9.0 0.00 0.00 0.00 70 1010.6
20260905145705 72 247 3.0 9.0 0.00 0.00 0.00 70 1010.6
20260905145204 72 304 3.0 8.0 0.00 0.00 0.00 70 1010.6
20260905144704 71 244 3.0 6.0 0.00 0.00 0.00 73 1010.6
20260905144204 70 280 1.0 6.0 0.00 0.00 0.00 72 1010.5
20260905143703 71 209 3.0 8.0 0.00 0.00 0.00 71 1010.6
20260905143204 71 238 2.0 8.0 0.00 0.00 0.00 71 1010.5
20260905142704 71 328 3.0 7.0 0.00 0.00 0.00 71 1010.5
20260905142203 71 285 2.0 6.0 0.00 0.00 0.00 71 1010.5
20260905141704 71 283 3.0 8.0 0.00 0.00 0.00 72 1010.6
20260905141204 70 33 2.0 3.0 0.00 0.00 0.00 75 1010.6
20260905140704 69 306 2.0 9.0 0.00 0.00 0.00 76 1010.6
20260905135704 69 286 2.0 6.0 0.00 0.00 0.00 76 1010.6
20260905135204 69 318 1.0 6.0 0.00 0.00 0.00 76 1010.7
20260905134704 69 267 2.0 8.0 0.00 0.00 0.00 76 1010.7
20260905134204 68 334 2.0 5.0 0.00 0.00 0.00 76 1010.7
20260905133704 68 212 1.0 3.0 0.00 0.00 0.00 76 1010.8
20260905133203 68 243 2.0 5.0 0.00 0.00 0.00 77 1010.8
20260905132704 68 290 3.0 7.0 0.00 0.00 0.00 77 1010.8
20260905132204 68 257 1.0 6.0 0.00 0.00 0.00 78 1010.8
20260905131704 67 318 1.0 3.0 0.00 0.00 0.00 81 1010.8
20260905131204 67 301 4.0 7.0 0.00 0.00 0.00 83 1010.9
20260905130704 66 16 2.0 3.0 0.00 0.00 0.00 85 1010.9
20260905130204 65 314 2.0 7.0 0.00 0.00 0.00 87 1011.0
20260905125704 64 301 2.0 3.0 0.00 0.00 0.00 89 1011.1
20260905125204 64 291 0.0 2.0 0.00 0.00 0.00 89 1011.0
20260905124204 62 314 0.0 0.0 0.00 0.00 0.00 90 1011.0
20260905123704 62 314 0.0 0.0 0.00 0.00 0.00 90 1011.0
20260905122704 61 314 0.0 0.0 0.00 0.00 0.00 90 1011.0
20260905122204 61 314 0.0 0.0 0.00 0.00 0.00 91 1010.9
20260905121704 60 314 0.0 0.0 0.00 0.00 0.00 91 1011.0
20260905121204 60 314 0.0 0.0 0.00 0.00 0.00 91 1011.0
20260905120704 60 314 0.0 0.0 0.00 0.00 0.00 91 1010.9
20260905120204 59 314 0.0 0.0 0.00 0.00 0.00 91 1010.9
20260905115205 58 314 0.0 0.0 0.00 0.00 0.00 91 1010.8
20260905114705 57 314 0.0 0.0 0.00 0.00 0.00 91 1010.7
20260905113704 57 314 0.0 0.0 0.00 0.00 0.00 90 1010.6
20260905113204 56 314 0.0 0.0 0.00 0.00 0.00 91 1010.6
20260905112204 56 314 0.0 0.0 0.00 0.00 0.00 90 1010.6
20260905111704 56 314 0.0 0.0 0.00 0.00 0.00 91 1010.5
20260905111204 55 314 0.0 0.0 0.00 0.00 0.00 90 1010.4
20260905110704 55 314 0.0 0.0 0.00 0.00 0.00 90 1010.4
20260905110204 55 314 0.0 0.0 0.00 0.00 0.00 90 1010.4
20260905105704 55 314 0.0 0.0 0.00 0.00 0.00 90 1010.3
20260905105204 55 314 0.0 0.0 0.00 0.00 0.00 90 1010.3
20260905104204 55 314 0.0 0.0 0.00 0.00 0.00 90 1010.1
20260905103204 55 314 0.0 0.0 0.00 0.00 0.00 90 1010.0
20260905102704 55 314 0.0 0.0 0.00 0.00 0.00 90 1009.9
20260905102203 55 314 0.0 0.0 0.00 0.00 0.00 90 1009.9
20260905101704 55 314 0.0 0.0 0.00 0.00 0.00 90 1009.9
20260905101204 55 314 0.0 0.0 0.00 0.00 0.00 90 1009.9
20260905100704 55 314 0.0 0.0 0.00 0.00 0.00 90 1009.8
20260905095706 55 314 0.0 0.0 0.00 0.00 0.00 90 1009.8
20260905095205 55 314 0.0 0.0 0.00 0.00 0.00 90 1009.7
20260905094705 55 314 0.0 0.0 0.00 0.00 0.00 90 1009.8
20260905094204 55 314 0.0 0.0 0.00 0.00 0.00 90 1009.8
20260905093704 55 314 0.0 0.0 0.00 0.00 0.00 90 1009.8
20260905093204 55 314 0.0 0.0 0.00 0.00 0.00 90 1009.8
20260905092704 55 314 0.0 0.0 0.00 0.00 0.00 90 1009.8
20260905092204 56 314 0.0 0.0 0.00 0.00 0.00 90 1009.8
20260905091204 56 314 0.0 0.0 0.00 0.00 0.00 90 1009.8
20260905085204 56 314 0.0 0.0 0.00 0.00 0.00 90 1009.8
20260905084704 56 314 0.0 0.0 0.00 0.00 0.00 90 1009.9
20260905084204 56 314 0.0 0.0 0.00 0.00 0.00 90 1009.8
20260905083704 56 314 0.0 0.0 0.00 0.00 0.00 90 1009.8
20260905082204 56 314 0.0 0.0 0.00 0.00 0.00 90 1009.6
20260905081704 56 314 0.0 0.0 0.00 0.00 0.00 90 1009.6
20260905080704 56 314 0.0 0.0 0.00 0.00 0.00 90 1009.7
20260905080204 57 314 0.0 0.0 0.00 0.00 0.00 90 1009.8
20260905075704 57 314 0.0 0.0 0.00 0.00 0.00 90 1009.7
20260905075204 57 314 0.0 0.0 0.00 0.00 0.00 90 1009.7
20260905074704 57 314 0.0 0.0 0.00 0.00 0.00 90 1009.7
20260905074203 57 314 0.0 0.0 0.00 0.00 0.00 90 1009.8
20260905073704 57 314 0.0 0.0 0.00 0.00 0.00 90 1009.8
20260905073204 57 314 0.0 0.0 0.00 0.00 0.00 90 1009.7
20260905072704 57 314 0.0 0.0 0.00 0.00 0.00 89 1009.8
20260905071704 57 314 0.0 0.0 0.00 0.00 0.00 90 1009.9
20260905071204 57 314 0.0 0.0 0.00 0.00 0.00 89 1009.9
20260905070204 57 314 0.0 0.0 0.00 0.00 0.00 89 1010.0
20260905065704 57 314 0.0 0.0 0.00 0.00 0.00 89 1010.1
20260905064703 58 314 0.0 0.0 0.00 0.00 0.00 89 1010.1
20260905064204 58 314 0.0 0.0 0.00 0.00 0.00 89 1010.2
20260905063704 58 314 0.0 0.0 0.00 0.00 0.00 89 1010.2
20260905063204 58 314 0.0 0.0 0.00 0.00 0.00 89 1010.2
20260905061704 58 314 0.0 0.0 0.00 0.00 0.00 89 1010.3
20260905061204 58 314 0.0 0.0 0.00 0.00 0.00 89 1010.3
20260905060704 58 314 0.0 0.0 0.00 0.00 0.00 89 1010.2
20260905055703 58 314 0.0 0.0 0.00 0.00 0.00 89 1010.3
20260905055203 59 314 0.0 0.0 0.00 0.00 0.00 89 1010.4
20260905054704 59 314 0.0 0.0 0.00 0.00 0.00 89 1010.5
20260905053704 58 314 0.0 0.0 0.00 0.00 0.00 89 1010.5
20260905053204 59 314 0.0 0.0 0.00 0.00 0.00 89 1010.5
20260905052704 59 314 0.0 0.0 0.00 0.00 0.00 89 1010.6
20260905051703 59 314 0.0 0.0 0.00 0.00 0.00 88 1010.7
20260905051204 59 314 0.0 0.0 0.00 0.00 0.00 88 1010.7
20260905050704 59 314 0.0 0.0 0.00 0.00 0.00 88 1010.7
20260905050204 59 314 0.0 0.0 0.00 0.00 0.00 88 1010.8
20260905045704 59 314 0.0 0.0 0.00 0.00 0.00 88 1010.7
20260905044704 59 314 0.0 0.0 0.00 0.00 0.00 88 1010.7
20260905044203 59 314 0.0 0.0 0.00 0.00 0.00 88 1010.6
20260905043704 59 314 0.0 0.0 0.00 0.00 0.00 88 1010.7
20260905042704 60 314 0.0 0.0 0.00 0.00 0.00 88 1010.8
20260905042204 60 314 0.0 0.0 0.00 0.00 0.00 88 1010.8
20260905041704 60 314 0.0 0.0 0.00 0.00 0.00 88 1010.8
20260905041203 60 314 0.0 0.0 0.00 0.00 0.00 88 1010.8
20260905040204 60 314 0.0 0.0 0.00 0.00 0.00 88 1010.8
20260905035704 60 314 0.0 0.0 0.00 0.00 0.00 88 1010.8
20260905035204 60 314 0.0 0.0 0.00 0.00 0.00 88 1010.7
20260905034704 60 314 0.0 0.0 0.00 0.00 0.00 88 1010.7
20260905034204 61 314 0.0 0.0 0.00 0.00 0.00 87 1010.4
20260905033704 61 314 0.0 0.0 0.00 0.00 0.00 87 1010.4
20260905032704 61 314 0.0 0.0 0.00 0.00 0.00 87 1010.4
20260905032204 61 314 0.0 0.0 0.00 0.00 0.00 87 1010.5
20260905030704 61 314 0.0 0.0 0.00 0.00 0.00 87 1010.7
20260905030204 62 314 0.0 0.0 0.00 0.00 0.00 87 1010.7
20260905025704 62 314 0.0 0.0 0.00 0.00 0.00 87 1010.8
20260905025204 62 314 0.0 0.0 0.00 0.00 0.00 87 1010.8
20260905024704 62 314 0.0 0.0 0.00 0.00 0.00 87 1010.8
20260905023704 62 314 0.0 0.0 0.00 0.00 0.00 87 1010.8
20260905023204 62 314 0.0 0.0 0.00 0.00 0.00 87 1010.8
20260905022704 62 314 0.0 0.0 0.00 0.00 0.00 86 1010.7
20260905022204 62 314 0.0 0.0 0.00 0.00 0.00 86 1010.7
20260905021703 63 314 0.0 0.0 0.00 0.00 0.00 86 1010.6
20260905021204 63 314 0.0 0.0 0.00 0.00 0.00 86 1010.6
20260905020704 63 314 0.0 0.0 0.00 0.00 0.00 86 1010.6
20260905020204 63 314 0.0 0.0 0.00 0.00 0.00 86 1010.5
20260905015704 63 314 0.0 0.0 0.00 0.00 0.00 85 1010.5
20260905015204 63 314 0.0 0.0 0.00 0.00 0.00 85 1010.7
20260905014704 63 314 0.0 0.0 0.00 0.00 0.00 85 1010.7
20260905014204 64 314 0.0 0.0 0.00 0.00 0.00 85 1010.7
20260905013704 64 314 0.0 0.0 0.00 0.00 0.00 85 1010.8
20260905013203 64 314 0.0 0.0 0.00 0.00 0.00 85 1010.8
20260905012704 64 314 0.0 0.0 0.00 0.00 0.00 85 1010.8
20260905012204 64 314 0.0 0.0 0.00 0.00 0.00 85 1010.8
20260905011704 65 314 0.0 0.0 0.00 0.00 0.00 85 1010.8
20260905011204 65 314 0.0 0.0 0.00 0.00 0.00 85 1010.9
20260905010704 65 314 0.0 0.0 0.00 0.00 0.00 84 1010.8
20260905010203 65 314 0.0 0.0 0.00 0.00 0.00 84 1010.9
20260905005704 65 314 0.0 0.0 0.00 0.00 0.00 84 1010.9
20260905005204 66 314 0.0 0.0 0.00 0.00 0.00 83 1010.8
20260905004704 66 314 0.0 0.0 0.00 0.00 0.00 83 1010.8
20260905004204 66 314 0.0 0.0 0.00 0.00 0.00 83 1010.8
20260905003204 67 314 0.0 0.0 0.00 0.00 0.00 82 1010.7
20260905002704 67 314 0.0 0.0 0.00 0.00 0.00 81 1010.7
20260905002204 68 314 0.0 0.0 0.00 0.00 0.00 81 1010.6
20260905001704 68 314 0.0 0.0 0.00 0.00 0.00 80 1010.4
20260905001204 68 314 0.0 0.0 0.00 0.00 0.00 79 1010.4
20260905000703 69 314 0.0 1.0 0.00 0.00 0.00 79 1010.3
20260905000204 69 314 0.0 1.0 0.00 0.00 0.00 78 1010.2
20260904235204 70 314 0.0 2.0 0.00 0.00 0.00 76 1010.2
20260904234704 71 314 1.0 3.0 0.00 0.00 0.00 75 1010.1
20260904234204 71 311 1.0 7.0 0.00 0.00 0.00 74 1010.1
20260904233704 71 305 1.0 3.0 0.00 0.00 0.00 74 1010.0
20260904233204 71 305 1.0 3.0 0.00 0.00 0.00 74 1010.0
20260904232704 71 239 1.0 3.0 0.00 0.00 0.00 75 1010.0
20260904231704 72 239 1.0 2.0 0.00 0.00 0.00 72 1009.9
20260904231204 73 239 0.0 1.0 0.00 0.00 0.00 71 1010.0
20260904230704 74 239 0.0 1.0 0.00 0.00 0.00 69 1009.9
20260904230203 74 239 1.0 2.0 0.00 0.00 0.00 67 1009.9
20260904225703 75 239 1.0 2.0 0.00 0.00 0.00 67 1009.9
20260904225204 75 239 1.0 2.0 0.00 0.00 0.00 66 1009.9
20260904224704 75 240 1.0 3.0 0.00 0.00 0.00 65 1009.8
20260904224204 75 272 1.0 5.0 0.00 0.00 0.00 67 1009.8
20260904223704 75 249 1.0 3.0 0.00 0.00 0.00 67 1009.8
20260904223204 76 276 0.0 2.0 0.00 0.00 0.00 66 1009.8
20260904222704 76 278 1.0 2.0 0.00 0.00 0.00 66 1009.8
20260904222204 76 266 1.0 2.0 0.00 0.00 0.00 65 1009.7
20260904221703 77 266 1.0 2.0 0.00 0.00 0.00 65 1009.7
20260904221204 77 266 2.0 3.0 0.00 0.00 0.00 63 1009.6
20260904220704 77 312 2.0 5.0 0.00 0.00 0.00 62 1009.6
20260904220203 77 299 1.0 3.0 0.00 0.00 0.00 62 1009.6
20260904215704 77 311 2.0 3.0 0.00 0.00 0.00 61 1009.6
20260904215204 78 321 1.0 3.0 0.00 0.00 0.00 61 1009.6
20260904214703 78 299 3.0 7.0 0.00 0.00 0.00 61 1009.6
20260904214204 78 326 2.0 12.0 0.00 0.00 0.00 60 1009.7
20260904213705 78 8 3.0 7.0 0.00 0.00 0.00 60 1009.7
20260904213204 78 298 2.0 7.0 0.00 0.00 0.00 60 1009.6
20260904212704 79 216 1.0 3.0 0.00 0.00 0.00 59 1009.6
20260904212204 80 227 3.0 8.0 0.00 0.00 0.00 57 1009.6
20260904211704 80 200 2.0 6.0 0.00 0.00 0.00 59 1009.7
20260904211204 80 295 2.0 5.0 0.00 0.00 0.00 58 1009.8
20260904210703 80 302 3.0 12.0 0.00 0.00 0.00 57 1009.8
20260904205704 80 302 2.0 7.0 0.00 0.00 0.00 59 1009.9
20260904205204 81 204 3.0 9.0 0.00 0.00 0.00 58 1009.8
20260904204204 80 312 2.0 3.0 0.00 0.00 0.00 60 1009.8
20260904203704 79 301 2.0 8.0 0.00 0.00 0.00 60 1009.8
20260904202704 80 275 2.0 8.0 0.00 0.00 0.00 59 1009.8
20260904201705 82 333 1.0 3.0 0.00 0.00 0.00 59 1009.9
20260904201204 81 313 2.0 5.0 0.00 0.00 0.00 59 1009.9
20260904200704 81 274 2.0 5.0 0.00 0.00 0.00 57 1009.9
20260904200204 82 18 2.0 10.0 0.00 0.00 0.00 56 1010.0
20260904195704 82 264 4.0 13.0 0.00 0.00 0.00 56 1010.0
20260904195204 82 292 1.0 3.0 0.00 0.00 0.00 57 1010.0
20260904194705 81 311 3.0 10.0 0.00 0.00 0.00 58 1010.0
20260904194203 80 312 3.0 6.0 0.00 0.00 0.00 59 1010.1
20260904193705 80 238 4.0 10.0 0.00 0.00 0.00 59 1010.1
20260904193204 80 233 3.0 10.0 0.00 0.00 0.00 58 1010.0
20260904192704 81 257 2.0 5.0 0.00 0.00 0.00 60 1010.1
20260904192203 81 230 3.0 8.0 0.00 0.00 0.00 58 1010.0
20260904191704 80 312 2.0 9.0 0.00 0.00 0.00 60 1010.1
20260904190704 80 311 3.0 8.0 0.00 0.00 0.00 59 1010.2
20260904185704 78 228 1.0 3.0 0.00 0.00 0.00 63 1010.2
20260904184703 79 250 3.0 8.0 0.00 0.00 0.00 60 1010.3
20260904183704 79 304 2.0 5.0 0.00 0.00 0.00 60 1010.5
20260904183204 79 340 3.0 8.0 0.00 0.00 0.00 61 1010.6
20260904180704 78 231 3.0 6.0 0.00 0.00 0.00 62 1010.8
20260904180204 78 266 2.0 10.0 0.00 0.00 0.00 59 1010.8
20260904175704 79 300 4.0 12.0 0.00 0.00 0.00 59 1010.7
20260904175204 79 243 2.0 5.0 0.00 0.00 0.00 60 1010.7
20260904174704 78 318 3.0 8.0 0.00 0.00 0.00 61 1010.6
20260904174204 77 281 2.0 6.0 0.00 0.00 0.00 64 1010.6
20260904173704 77 135 1.0 8.0 0.00 0.00 0.00 64 1010.6